Time,TemperatureF,DewpointF,PressureIn,WindDirection,WindDirectionDegrees,WindSpeedMPH,WindSpeedGustMPH,Humidity,HourlyPrecipIn,Conditions,Clouds,dailyrainin,SoftwareType,DateUTC
2013-04-30 00:02:00,54.0,52.0,29.02,ESE,112,0.0,0.0,94,0.00,,,0.12,,2013-04-30 04:02:00,
2013-04-30 00:12:00,54.0,52.0,29.02,ESE,112,0.0,0.0,94,0.00,,,0.12,,2013-04-30 04:12:00,
2013-04-30 00:22:00,54.0,52.0,29.02,ESE,112,0.0,0.0,94,0.00,,,0.12,,2013-04-30 04:22:00,
2013-04-30 00:32:00,53.0,52.0,29.02,ESE,112,0.0,0.0,95,0.00,,,0.12,,2013-04-30 04:32:00,
2013-04-30 00:42:00,53.0,52.0,29.02,ESE,112,0.0,0.0,95,0.00,,,0.12,,2013-04-30 04:42:00,
2013-04-30 00:52:00,53.0,52.0,29.02,ESE,112,0.0,0.0,95,0.00,,,0.12,,2013-04-30 04:52:00,
2013-04-30 01:02:00,53.0,52.0,29.01,WSW,247,0.0,2.0,96,0.00,,,0.04,,2013-04-30 05:02:00,
2013-04-30 01:12:00,53.0,52.0,29.01,WSW,247,0.0,2.0,96,0.00,,,0.04,,2013-04-30 05:12:00,
2013-04-30 01:22:00,52.0,51.0,29.01,WSW,247,0.0,0.0,96,0.00,,,0.04,,2013-04-30 05:22:00,
2013-04-30 01:31:00,51.0,50.0,29.01,WSW,247,0.0,0.0,97,0.00,,,0.04,,2013-04-30 05:31:00,
2013-04-30 01:42:00,51.0,50.0,29.01,WSW,247,0.0,0.0,97,0.00,,,0.04,,2013-04-30 05:42:00,
2013-04-30 01:51:00,51.0,50.0,29.01,WSW,247,0.0,0.0,97,0.00,,,0.04,,2013-04-30 05:51:00,
2013-04-30 02:02:00,51.0,50.0,29.01,WSW,247,0.0,0.0,98,0.00,,,0.04,,2013-04-30 06:02:00,
2013-04-30 02:12:00,50.0,49.0,29.04,WSW,247,0.0,0.0,98,0.00,,,0.04,,2013-04-30 06:12:00,
2013-04-30 02:21:00,50.0,49.0,29.04,WSW,247,0.0,0.0,98,0.00,,,0.04,,2013-04-30 06:21:00,
2013-04-30 02:32:00,50.0,49.0,29.04,WSW,247,0.0,0.0,98,0.00,,,0.04,,2013-04-30 06:32:00,
2013-04-30 02:41:00,50.0,49.0,29.04,WSW,247,0.0,0.0,98,0.00,,,0.04,,2013-04-30 06:41:00,
2013-04-30 02:52:00,50.0,49.0,29.01,WSW,247,0.0,0.0,98,0.00,,,0.04,,2013-04-30 06:52:00,
2013-04-30 03:01:00,50.0,49.0,29.01,WSW,247,0.0,0.0,98,0.00,,,0.04,,2013-04-30 07:01:00,
2013-04-30 03:11:00,50.0,49.0,29.01,WSW,247,0.0,0.0,98,0.00,,,0.04,,2013-04-30 07:11:00,
2013-04-30 03:21:00,50.0,49.0,29.01,NNW,337,0.0,0.0,98,0.00,,,0.04,,2013-04-30 07:21:00,
2013-04-30 03:32:00,50.0,49.0,29.01,NNW,337,0.0,0.0,98,0.00,,,0.04,,2013-04-30 07:32:00,
2013-04-30 03:42:00,50.0,49.0,29.01,NNW,337,0.0,0.0,98,0.00,,,0.04,,2013-04-30 07:42:00,
2013-04-30 03:52:00,50.0,49.0,29.01,NNW,337,0.0,0.0,98,0.00,,,0.04,,2013-04-30 07:52:00,
2013-04-30 04:02:00,50.0,49.0,29.04,NNW,337,0.0,0.0,98,0.00,,,0.04,,2013-04-30 08:02:00,
2013-04-30 04:11:00,50.0,49.0,29.04,NNW,337,0.0,0.0,98,0.00,,,0.04,,2013-04-30 08:11:00,
2013-04-30 04:22:00,50.0,49.0,29.04,NNW,337,0.0,0.0,98,0.00,,,0.04,,2013-04-30 08:22:00,
2013-04-30 04:32:00,50.0,49.0,29.04,NNW,337,0.0,0.0,98,0.00,,,0.04,,2013-04-30 08:32:00,
2013-04-30 04:42:00,50.0,49.0,29.04,NNW,337,0.0,0.0,98,0.00,,,0.04,,2013-04-30 08:42:00,
2013-04-30 04:52:00,50.0,49.0,29.04,NNW,337,0.0,0.0,98,0.00,,,0.04,,2013-04-30 08:52:00,
2013-04-30 05:02:00,50.0,49.0,29.04,NNW,337,0.0,0.0,98,0.00,,,0.04,,2013-04-30 09:02:00,
2013-04-30 05:11:00,50.0,49.0,29.04,NNW,337,0.0,0.0,98,0.00,,,0.04,,2013-04-30 09:11:00,
2013-04-30 05:22:00,50.0,49.0,29.04,NNW,337,0.0,0.0,98,0.00,,,0.04,,2013-04-30 09:22:00,
2013-04-30 05:33:00,50.0,49.0,29.04,NNW,337,0.0,0.0,98,0.00,,,0.04,,2013-04-30 09:33:00,
2013-04-30 05:43:00,50.0,49.0,29.04,NNW,337,0.0,0.0,98,0.00,,,0.04,,2013-04-30 09:43:00,
2013-04-30 05:52:00,49.0,48.0,29.04,NNW,337,0.0,0.0,98,0.00,,,0.04,,2013-04-30 09:52:00,
2013-04-30 06:03:00,49.0,48.0,29.04,NNW,337,0.0,0.0,98,0.00,,,0.04,,2013-04-30 10:03:00,
2013-04-30 06:12:00,49.0,48.0,29.04,NNW,337,0.0,0.0,98,0.00,,,0.04,,2013-04-30 10:12:00,
2013-04-30 06:22:00,49.0,48.0,29.04,NNW,337,0.0,0.0,98,0.00,,,0.04,,2013-04-30 10:22:00,
2013-04-30 06:32:00,49.0,48.0,29.04,NNW,337,0.0,0.0,98,0.00,,,0.04,,2013-04-30 10:32:00,
2013-04-30 06:41:00,49.0,48.0,29.04,NNW,337,0.0,0.0,98,0.00,,,0.04,,2013-04-30 10:41:00,
2013-04-30 06:52:00,49.0,48.0,29.07,NNW,337,0.0,0.0,98,0.00,,,0.04,,2013-04-30 10:52:00,
2013-04-30 07:02:00,48.0,47.0,29.07,NNW,337,0.0,0.0,98,0.00,,,0.04,,2013-04-30 11:02:00,
2013-04-30 07:11:00,48.0,47.0,29.07,NNW,337,0.0,0.0,98,0.00,,,0.04,,2013-04-30 11:11:00,
2013-04-30 07:21:00,49.0,48.0,29.07,NNW,337,0.0,0.0,98,0.00,,,0.04,,2013-04-30 11:21:00,
2013-04-30 07:32:00,49.0,48.0,29.07,NNW,337,0.0,0.0,98,0.00,,,0.04,,2013-04-30 11:32:00,
2013-04-30 07:42:00,49.0,48.0,29.07,NNW,337,0.0,0.0,98,0.00,,,0.04,,2013-04-30 11:42:00,
2013-04-30 07:51:00,50.0,49.0,29.07,NNW,337,0.0,0.0,98,0.00,,,0.04,,2013-04-30 11:51:00,
2013-04-30 08:01:00,50.0,49.0,29.10,NNW,337,0.0,0.0,98,0.00,,,0.04,,2013-04-30 12:01:00,
2013-04-30 08:11:00,50.0,49.0,29.10,NNW,337,0.0,0.0,98,0.00,,,0.04,,2013-04-30 12:11:00,
2013-04-30 08:21:00,51.0,50.0,29.10,NNW,337,0.0,0.0,98,0.00,,,0.04,,2013-04-30 12:21:00,
2013-04-30 08:31:00,52.0,51.0,29.10,NNW,337,0.0,0.0,98,0.00,,,0.04,,2013-04-30 12:31:00,
2013-04-30 08:41:00,52.0,51.0,29.10,NNW,337,0.0,0.0,98,0.00,,,0.04,,2013-04-30 12:41:00,
2013-04-30 08:51:00,55.0,54.0,29.10,NNW,337,0.0,0.0,98,0.00,,,0.04,,2013-04-30 12:51:00,
2013-04-30 09:01:00,56.0,55.0,29.10,South,180,0.0,0.0,98,0.00,,,0.04,,2013-04-30 13:01:00,
2013-04-30 09:11:00,56.0,55.0,29.10,South,180,0.0,0.0,98,0.00,,,0.04,,2013-04-30 13:11:00,
2013-04-30 09:21:00,59.0,58.0,29.11,ESE,112,0.0,0.0,98,0.00,,,0.04,,2013-04-30 13:21:00,
2013-04-30 09:31:00,61.0,59.0,29.11,SSE,157,0.0,0.0,92,0.00,,,0.04,,2013-04-30 13:31:00,
2013-04-30 09:41:00,61.0,59.0,29.11,SSE,157,0.0,0.0,92,0.00,,,0.04,,2013-04-30 13:41:00,
2013-04-30 09:52:00,63.0,57.0,29.11,SSE,157,0.0,3.0,82,0.00,,,0.04,,2013-04-30 13:52:00,
2013-04-30 10:02:00,66.0,55.0,29.11,ESE,119,2.0,4.0,67,0.00,,,0.04,,2013-04-30 14:02:00,
2013-04-30 10:11:00,67.0,53.0,29.11,SSE,151,3.0,4.0,60,0.00,,,0.04,,2013-04-30 14:11:00,
2013-04-30 10:21:00,67.0,53.0,29.11,SSE,151,3.0,4.0,60,0.00,,,0.04,,2013-04-30 14:21:00,
2013-04-30 10:31:00,68.0,51.0,29.11,ESE,104,2.0,4.0,55,0.00,,,0.04,,2013-04-30 14:31:00,
2013-04-30 10:41:00,68.0,51.0,29.11,ESE,104,2.0,4.0,55,0.00,,,0.04,,2013-04-30 14:41:00,
2013-04-30 10:52:00,70.0,52.0,29.11,SE,142,3.0,4.0,53,0.00,,,0.04,,2013-04-30 14:52:00,
2013-04-30 11:02:00,71.0,50.0,29.11,South,180,2.0,6.0,47,0.00,,,0.04,,2013-04-30 15:02:00,
2013-04-30 11:11:00,71.0,50.0,29.11,South,180,2.0,6.0,47,0.00,,,0.04,,2013-04-30 15:11:00,
2013-04-30 11:21:00,72.0,49.0,29.11,SSW,202,3.0,6.0,45,0.00,,,0.04,,2013-04-30 15:21:00,
2013-04-30 11:32:00,73.0,49.0,29.11,SSE,164,3.0,6.0,43,0.00,,,0.04,,2013-04-30 15:32:00,
2013-04-30 11:42:00,73.0,49.0,29.11,SSE,164,3.0,6.0,43,0.00,,,0.04,,2013-04-30 15:42:00,
2013-04-30 11:52:00,76.0,49.0,29.12,WSW,237,2.0,5.0,39,0.00,,,0.04,,2013-04-30 15:52:00,
2013-04-30 12:02:00,75.0,47.0,29.11,SSW,206,3.0,5.0,37,0.00,,,0.04,,2013-04-30 16:02:00,
2013-04-30 12:12:00,75.0,47.0,29.11,SSW,206,3.0,5.0,37,0.00,,,0.04,,2013-04-30 16:12:00,
2013-04-30 12:23:00,76.0,47.0,29.11,SW,232,4.0,6.0,36,0.00,,,0.04,,2013-04-30 16:23:00,
2013-04-30 12:33:00,77.0,47.0,29.12,SSW,210,2.0,6.0,35,0.00,,,0.04,,2013-04-30 16:33:00,
2013-04-30 12:42:00,77.0,47.0,29.12,SSW,210,2.0,6.0,35,0.00,,,0.04,,2013-04-30 16:42:00,
2013-04-30 12:52:00,79.0,47.0,29.12,SE,135,3.0,4.0,32,0.00,,,0.04,,2013-04-30 16:52:00,
2013-04-30 13:02:00,78.0,46.0,29.12,SSW,194,3.0,4.0,32,0.00,,,0.04,,2013-04-30 17:02:00,
2013-04-30 13:12:00,78.0,46.0,29.12,SSW,194,3.0,4.0,32,0.00,,,0.04,,2013-04-30 17:12:00,
2013-04-30 13:22:00,78.0,47.0,29.11,SSE,156,1.0,6.0,33,0.00,,,0.04,,2013-04-30 17:22:00,
2013-04-30 13:32:00,80.0,47.0,29.12,SSW,195,3.0,7.0,31,0.00,,,0.04,,2013-04-30 17:32:00,
2013-04-30 13:42:00,80.0,47.0,29.12,SSW,195,3.0,7.0,31,0.00,,,0.04,,2013-04-30 17:42:00,
2013-04-30 13:53:00,80.0,47.0,29.12,SSW,195,3.0,7.0,31,0.00,,,0.04,,2013-04-30 17:53:00,
2013-04-30 14:01:00,81.0,47.0,29.12,WSW,242,1.0,4.0,30,0.00,,,0.04,,2013-04-30 18:01:00,
2013-04-30 14:11:00,81.0,47.0,29.12,WSW,242,1.0,4.0,30,0.00,,,0.04,,2013-04-30 18:11:00,
2013-04-30 14:22:00,80.0,46.0,29.11,South,178,2.0,7.0,30,0.00,,,0.04,,2013-04-30 18:22:00,
2013-04-30 14:32:00,83.0,45.0,29.12,SE,140,2.0,5.0,26,0.00,,,0.04,,2013-04-30 18:32:00,
2013-04-30 14:42:00,83.0,45.0,29.12,SE,140,2.0,5.0,26,0.00,,,0.04,,2013-04-30 18:42:00,
2013-04-30 14:52:00,83.0,42.0,29.12,WSW,247,3.0,7.0,24,0.00,,,0.04,,2013-04-30 18:52:00,
2013-04-30 15:01:00,78.0,44.0,29.11,ESE,105,2.0,4.0,30,0.00,,,0.00,,2013-04-30 19:01:00,
2013-04-30 15:11:00,78.0,44.0,29.11,ESE,105,2.0,4.0,30,0.00,,,0.00,,2013-04-30 19:11:00,
2013-04-30 15:22:00,82.0,44.0,29.12,NNE,27,3.0,6.0,26,0.00,,,0.00,,2013-04-30 19:22:00,
2013-04-30 15:32:00,83.0,45.0,29.12,East,97,5.0,8.0,26,0.00,,,0.00,,2013-04-30 19:32:00,
2013-04-30 15:42:00,83.0,45.0,29.12,East,97,5.0,8.0,26,0.00,,,0.00,,2013-04-30 19:42:00,
2013-04-30 15:52:00,79.0,45.0,29.11,ESE,112,2.0,5.0,30,0.00,,,0.00,,2013-04-30 19:52:00,
2013-04-30 16:02:00,83.0,46.0,29.12,ENE,69,2.0,4.0,27,0.00,,,0.00,,2013-04-30 20:02:00,
2013-04-30 16:11:00,83.0,46.0,29.12,ENE,69,2.0,4.0,27,0.00,,,0.00,,2013-04-30 20:11:00,
2013-04-30 16:21:00,84.0,42.0,29.09,ESE,112,4.0,6.0,23,0.00,,,0.00,,2013-04-30 20:21:00,
2013-04-30 16:32:00,79.0,41.0,29.08,ESE,110,4.0,9.0,26,0.00,,,0.00,,2013-04-30 20:32:00,
2013-04-30 16:42:00,79.0,41.0,29.08,ESE,110,4.0,9.0,26,0.00,,,0.00,,2013-04-30 20:42:00,
2013-04-30 16:52:00,80.0,42.0,29.08,East,81,5.0,7.0,26,0.00,,,0.00,,2013-04-30 20:52:00,
2013-04-30 17:02:00,79.0,43.0,29.08,ENE,67,3.0,6.0,28,0.00,,,0.00,,2013-04-30 21:02:00,
2013-04-30 17:11:00,80.0,41.0,29.08,East,89,3.0,7.0,25,0.00,,,0.00,,2013-04-30 21:11:00,
2013-04-30 17:22:00,80.0,41.0,29.08,East,89,3.0,7.0,25,0.00,,,0.00,,2013-04-30 21:22:00,
2013-04-30 17:32:00,82.0,42.0,29.08,ESE,112,3.0,4.0,24,0.00,,,0.00,,2013-04-30 21:32:00,
2013-04-30 17:42:00,82.0,42.0,29.08,ESE,112,3.0,4.0,24,0.00,,,0.00,,2013-04-30 21:42:00,
2013-04-30 17:53:00,82.0,42.0,29.09,South,180,3.0,4.0,24,0.00,,,0.00,,2013-04-30 21:53:00,
2013-04-30 18:02:00,81.0,40.0,29.08,ESE,102,2.0,5.0,23,0.00,,,0.00,,2013-04-30 22:02:00,
2013-04-30 18:12:00,81.0,40.0,29.08,ESE,102,2.0,5.0,23,0.00,,,0.00,,2013-04-30 22:12:00,
2013-04-30 18:23:00,80.0,40.0,29.08,ESE,118,1.0,6.0,24,0.00,,,0.00,,2013-04-30 22:23:00,
2013-04-30 18:33:00,79.0,40.0,29.08,ESE,113,3.0,6.0,25,0.00,,,0.00,,2013-04-30 22:33:00,
2013-04-30 18:42:00,79.0,40.0,29.08,ESE,113,3.0,6.0,25,0.00,,,0.00,,2013-04-30 22:42:00,
2013-04-30 18:52:00,79.0,41.0,29.08,SSE,149,3.0,4.0,26,0.00,,,0.00,,2013-04-30 22:52:00,
2013-04-30 19:02:00,78.0,40.0,29.08,SE,135,2.0,2.0,26,0.00,,,0.00,,2013-04-30 23:02:00,
2013-04-30 19:12:00,78.0,40.0,29.08,SE,135,2.0,2.0,26,0.00,,,0.00,,2013-04-30 23:12:00,
2013-04-30 19:22:00,77.0,39.0,29.08,ESE,109,3.0,9.0,26,0.00,,,0.00,,2013-04-30 23:22:00,
2013-04-30 19:32:00,76.0,42.0,29.08,SSW,194,2.0,7.0,30,0.00,,,0.00,,2013-04-30 23:32:00,
2013-04-30 19:42:00,76.0,42.0,29.08,SSW,194,2.0,7.0,30,0.00,,,0.00,,2013-04-30 23:42:00,
2013-04-30 19:52:00,75.0,43.0,29.08,SE,125,3.0,4.0,32,0.00,,,0.00,,2013-04-30 23:52:00,
2013-04-30 20:02:00,74.0,42.0,29.08,ESE,112,4.0,4.0,32,0.00,,,0.00,,2013-05-01 00:02:00,
2013-04-30 20:11:00,74.0,42.0,29.08,ESE,112,4.0,4.0,32,0.00,,,0.00,,2013-05-01 00:11:00,
2013-04-30 20:22:00,73.0,42.0,29.11,ESE,112,2.0,6.0,33,0.00,,,0.00,,2013-05-01 00:22:00,
2013-04-30 20:32:00,71.0,42.0,29.11,SE,135,0.0,2.0,35,0.00,,,0.00,,2013-05-01 00:32:00,
2013-04-30 20:42:00,71.0,42.0,29.11,SE,135,0.0,2.0,35,0.00,,,0.00,,2013-05-01 00:42:00,
2013-04-30 20:51:00,70.0,43.0,29.11,SE,135,1.0,2.0,37,0.00,,,0.00,,2013-05-01 00:51:00,
2013-04-30 21:01:00,69.0,43.0,29.11,SE,135,0.0,1.0,39,0.00,,,0.00,,2013-05-01 01:01:00,
2013-04-30 21:11:00,69.0,43.0,29.11,SE,135,0.0,1.0,39,0.00,,,0.00,,2013-05-01 01:11:00,
2013-04-30 21:21:00,67.0,43.0,29.11,SE,135,0.0,0.0,42,0.00,,,0.00,,2013-05-01 01:21:00,
2013-04-30 21:32:00,66.0,43.0,29.11,SE,135,0.0,0.0,43,0.00,,,0.00,,2013-05-01 01:32:00,
2013-04-30 21:42:00,66.0,43.0,29.11,SE,135,0.0,0.0,43,0.00,,,0.00,,2013-05-01 01:42:00,
2013-04-30 21:52:00,66.0,44.0,29.11,SE,135,0.0,0.0,45,0.00,,,0.00,,2013-05-01 01:52:00,
2013-04-30 22:02:00,66.0,45.0,29.15,SE,135,0.0,2.0,46,0.00,,,0.00,,2013-05-01 02:02:00,
2013-04-30 22:11:00,66.0,45.0,29.15,SE,135,0.0,2.0,46,0.00,,,0.00,,2013-05-01 02:11:00,
2013-04-30 22:21:00,66.0,46.0,29.15,ESE,117,2.0,4.0,49,0.00,,,0.00,,2013-05-01 02:21:00,
2013-04-30 22:32:00,66.0,46.0,29.15,ESE,112,1.0,3.0,49,0.00,,,0.00,,2013-05-01 02:32:00,
2013-04-30 22:42:00,66.0,46.0,29.15,ESE,112,1.0,3.0,49,0.00,,,0.00,,2013-05-01 02:42:00,
2013-04-30 22:52:00,65.0,46.0,29.15,ENE,67,2.0,3.0,51,0.00,,,0.00,,2013-05-01 02:52:00,
2013-04-30 23:02:00,65.0,46.0,29.15,ESE,122,2.0,4.0,51,0.00,,,0.00,,2013-05-01 03:02:00,
2013-04-30 23:11:00,65.0,46.0,29.15,ESE,122,2.0,4.0,51,0.00,,,0.00,,2013-05-01 03:11:00,
2013-04-30 23:21:00,64.0,46.0,29.15,WSW,243,2.0,5.0,52,0.00,,,0.00,,2013-05-01 03:21:00,
2013-04-30 23:33:00,64.0,46.0,29.15,SE,135,1.0,4.0,52,0.00,,,0.00,,2013-05-01 03:33:00,
2013-04-30 23:43:00,64.0,46.0,29.15,SE,135,1.0,4.0,52,0.00,,,0.00,,2013-05-01 03:43:00,
2013-04-30 23:53:00,64.0,46.0,29.15,SE,135,1.0,4.0,52,0.00,,,0.00,,2013-05-01 03:53:00,